Delta, CO

5:49 PM MDT on May 21, 2018 (GMT -0600)
Delta

Weather History for KAJZ - September, 2013

Change the Weather History Date:

Friday, September 13, 2013

  Actual Average (WUND) Record (WUND)
Temperature  
Mean Temperature 70 °F -  
Max Temperature 83 °F - - (-1)
Min Temperature 57 °F - - (-1)
Cooling Degree Days 5    
Growing Degree Days 20 (Base 50)    
Moisture  
Dew Point 53 °F    
Average Humidity 63    
Maximum Humidity 95    
Minimum Humidity 24    
Precipitation  
Precipitation 0.00 in - - ()
Sea Level Pressure  
Sea Level Pressure 30.05 in    
Wind  
Wind Speed 4 mph (East)    
Max Wind Speed 12 mph    
Max Gust Speed 17 mph    
Visibility 7 miles    
Events Thunderstorm    
Averages and records for this station are not official NWS values.
T = Trace of Precipitation, MM = Missing Value Source: NWS Daily Summary

Daily Weather History Graph

Daily Weather History Graph

Search for Another Location

Airport or City:

Astronomy

Sep. 13, 2013 Rise Set
Actual Time 6:52 AM MDT 7:23 PM MDT
Civil Twilight 6:25 AM MDT 7:49 PM MDT
Nautical Twilight 5:53 AM MDT 8:21 PM MDT
Astronomical Twilight 5:21 AM MDT 8:53 PM MDT
Moon 3:13 PM MDT (9/13) 12:27 AM MDT (9/13)
Length of Visible Light 13h 24m
Length of Day
12h 30m
Waxing Gibbous, 62% of the Moon is Illuminated
Sep 13
Waxing Gibbous
Sep 19
Full
Sep 26
Last Quarter
Oct 4
New
Oct 11
First Quarter

Hourly Weather History & Observations

Time (MDT) Temp. Dew Point Humidity Pressure Visibility Wind Dir Wind Speed Gust Speed Precip Events Conditions
12:15 AM 63.3 °F 58.6 °F 85% 30.15 in 7.0 mi NE 6.9 mph - N/A   Mostly Cloudy
12:35 AM 63.3 °F 58.3 °F 84% 30.15 in 7.0 mi NNE 5.8 mph - N/A   Scattered Clouds
12:55 AM 63.1 °F 58.8 °F 86% 30.15 in 7.0 mi Calm Calm - N/A   Scattered Clouds
1:15 AM 62.8 °F 59.2 °F 88% 30.16 in 7.0 mi Calm Calm - N/A   Scattered Clouds
1:35 AM 62.2 °F 59.2 °F 90% 30.16 in 10.0 mi NE 5.8 mph - N/A   Scattered Clouds
1:55 AM 62.2 °F 59.2 °F 90% 30.16 in 7.0 mi NE 6.9 mph - N/A   Scattered Clouds
2:15 AM 62.6 °F 59.0 °F 88% 30.15 in 7.0 mi NE 9.2 mph - N/A   Mostly Cloudy
2:35 AM 62.8 °F 58.3 °F 85% 30.14 in 5.0 mi ENE 11.5 mph - N/A   Overcast
2:55 AM 62.8 °F 58.3 °F 85% 30.15 in 5.0 mi ENE 6.9 mph - N/A   Overcast
3:15 AM 62.8 °F 56.7 °F 80% 30.15 in 5.0 mi NE 4.6 mph - N/A   Scattered Clouds
3:35 AM 62.6 °F 57.6 °F 84% 30.13 in 7.0 mi North 5.8 mph - N/A   Clear
3:55 AM 61.7 °F 56.3 °F 82% 30.13 in 7.0 mi NNW 4.6 mph - N/A   Clear
4:15 AM 62.4 °F 55.9 °F 79% 30.13 in 7.0 mi SSE 3.5 mph - N/A   Clear
4:35 AM 60.1 °F 57.4 °F 91% 30.13 in 7.0 mi Calm Calm - N/A   Clear
4:55 AM 59.7 °F 57.0 °F 91% 30.13 in 7.0 mi ESE 3.5 mph - N/A   Clear
5:15 AM 59.0 °F 56.8 °F 93% 30.12 in 5.0 mi ENE 3.5 mph - N/A   Clear
5:35 AM 58.3 °F 56.8 °F 95% 30.12 in 7.0 mi WSW 3.5 mph - N/A   Clear
5:55 AM 58.6 °F 56.5 °F 93% 30.12 in 10.0 mi Calm Calm - N/A   Clear
6:15 AM 58.3 °F 55.6 °F 91% 30.11 in 10.0 mi Calm Calm - N/A   Scattered Clouds
6:35 AM 58.3 °F 55.4 °F 90% 30.11 in 7.0 mi Calm Calm - N/A   Mostly Cloudy
6:55 AM 57.9 °F 55.6 °F 92% 30.12 in 7.0 mi Calm Calm - N/A   Scattered Clouds
7:15 AM 57.4 °F 55.4 °F 93% 30.12 in 5.0 mi Calm Calm - N/A   Clear
7:35 AM 57.4 °F 55.8 °F 94% 30.12 in 7.0 mi Calm Calm - N/A   Clear
7:55 AM 58.6 °F 57.2 °F 95% 30.12 in 5.0 mi North 3.5 mph - N/A   Clear
8:15 AM 60.3 °F 57.0 °F 89% 30.12 in 5.0 mi NE 3.5 mph - N/A   Clear
8:35 AM 62.4 °F 55.0 °F 77% 30.12 in 7.0 mi East 3.5 mph - N/A   Clear
8:55 AM 62.8 °F 55.2 °F 76% 30.12 in 7.0 mi East 4.6 mph - N/A   Clear
9:15 AM 63.7 °F 55.9 °F 76% 30.12 in 5.0 mi ENE 3.5 mph - N/A   Clear
9:35 AM 64.4 °F 55.2 °F 72% 30.12 in 5.0 mi Calm Calm - N/A   Clear
9:55 AM 65.8 °F 55.8 °F 70% 30.12 in 7.0 mi Calm Calm - N/A   Clear
10:15 AM 67.1 °F 54.5 °F 64% 30.12 in 7.0 mi ESE 3.5 mph - N/A   Clear
10:35 AM 66.9 °F 55.8 °F 67% 30.11 in 5.0 mi Calm Calm - N/A   Clear
10:55 AM 68.4 °F 55.4 °F 63% 30.11 in 5.0 mi Calm Calm - N/A   Clear
11:15 AM 69.6 °F 55.6 °F 61% 30.10 in 7.0 mi Calm Calm - N/A   Clear
11:35 AM 71.6 °F 54.9 °F 55% 30.09 in 10.0 mi Calm Calm - N/A   Clear
11:55 AM 72.7 °F 54.1 °F 52% 30.08 in 7.0 mi Calm Calm - N/A   Scattered Clouds
12:15 PM 74.5 °F 52.7 °F 46% 30.07 in 7.0 mi ENE 4.6 mph - N/A   Clear
12:35 PM 75.2 °F 50.5 °F 42% 30.06 in 5.0 mi SE 3.5 mph - N/A   Clear
12:55 PM 76.6 °F 52.9 °F 43% 30.05 in 7.0 mi Calm Calm - N/A   Clear
1:15 PM 78.1 °F 50.2 °F 38% 30.04 in 7.0 mi Calm Calm - N/A   Clear
1:35 PM 79.0 °F 50.9 °F 37% 30.02 in 7.0 mi SE 4.6 mph - N/A   Clear
1:55 PM 79.5 °F 50.2 °F 36% 30.01 in 5.0 mi SE 4.6 mph - N/A   Clear
2:15 PM 81.1 °F 48.0 °F 31% 30.00 in 5.0 mi ENE 3.5 mph - N/A   Clear
2:35 PM 81.9 °F 46.8 °F 29% 30.00 in 7.0 mi SE 4.6 mph - N/A   Clear
2:55 PM 81.5 °F 44.1 °F 27% 29.98 in 7.0 mi SSE 3.5 mph - N/A   Clear
3:15 PM 83.1 °F 43.3 °F 25% 29.98 in 7.0 mi South 4.6 mph - N/A   Clear
3:35 PM 82.6 °F 45.9 °F 28% 29.97 in 5.0 mi SE 4.6 mph - N/A   Clear
3:55 PM 82.2 °F 44.4 °F 26% 29.96 in 7.0 mi South 3.5 mph - N/A   Clear
4:15 PM 83.1 °F 45.0 °F 26% 29.95 in 7.0 mi SSW 4.6 mph - N/A   Clear
4:35 PM 83.3 °F 44.6 °F 26% 29.95 in 10.0 mi SSW 5.8 mph - N/A   Clear
4:55 PM 82.6 °F 43.3 °F 25% 29.94 in 10.0 mi SE 4.6 mph - N/A   Clear
5:15 PM 82.9 °F 43.0 °F 24% 29.93 in 7.0 mi Calm Calm - N/A   Clear
5:35 PM 80.8 °F 45.5 °F 29% 29.94 in 7.0 mi SSE 4.6 mph - N/A   Clear
5:55 PM 79.7 °F 46.9 °F 32% 29.94 in 7.0 mi South 6.9 mph - N/A   Clear
6:15 PM 79.7 °F 47.7 °F 32% 29.94 in 7.0 mi South 5.8 mph - N/A   Scattered Clouds
6:35 PM 77.5 °F 50.0 °F 38% 29.94 in 7.0 mi SSW 5.8 mph - N/A   Mostly Cloudy
6:55 PM 76.1 °F 49.3 °F 39% 29.95 in 5.0 mi South 10.4 mph 17.3 mph N/A   Overcast
7:15 PM 77.0 °F 48.9 °F 37% 29.93 in 7.0 mi WNW 5.8 mph - N/A   Overcast
7:35 PM 75.9 °F 48.6 °F 38% 29.93 in 10.0 mi North 3.5 mph - N/A   Scattered Clouds
7:55 PM 74.5 °F 49.1 °F 41% 29.94 in 10.0 mi SE 5.8 mph - N/A   Clear
8:15 PM 71.6 °F 53.1 °F 52% 29.95 in 10.0 mi Calm Calm - N/A   Clear
8:35 PM 71.1 °F 54.1 °F 55% 29.96 in 7.0 mi Calm Calm - N/A   Clear
8:55 PM 68.5 °F 55.0 °F 62% 29.97 in 7.0 mi SE 3.5 mph - N/A Thunderstorm Clear
9:15 PM 68.0 °F 55.4 °F 64% 29.98 in 7.0 mi Calm Calm - N/A   Clear
9:35 PM 67.8 °F 54.7 °F 63% 29.98 in 7.0 mi ESE 3.5 mph - N/A Thunderstorm Scattered Clouds
9:55 PM 66.9 °F 54.0 °F 63% 29.98 in 7.0 mi Calm Calm - N/A Thunderstorm Clear
10:15 PM 66.0 °F 53.6 °F 64% 29.99 in 7.0 mi Calm Calm - N/A   Clear
10:35 PM 66.9 °F 54.1 °F 63% 30.00 in 5.0 mi NNE 3.5 mph - N/A Thunderstorm Thunderstorm
10:55 PM 66.4 °F 55.6 °F 68% 30.01 in 7.0 mi NNW 3.5 mph - N/A   Overcast
11:15 PM 64.4 °F 55.9 °F 74% 30.00 in 7.0 mi NNE 8.1 mph - N/A Thunderstorm Mostly Cloudy
11:35 PM 64.8 °F 56.8 °F 75% 30.00 in 10.0 mi East 6.9 mph - N/A Thunderstorm Scattered Clouds
11:55 PM 63.5 °F 55.9 °F 76% 30.00 in 7.0 mi ENE 5.8 mph - N/A Thunderstorm Clear